Weather History for Stevens Point, WI

Change the Weather History Date:

Saturday, May 25, 2013

  Actual Average Record
Temperature  
Mean Temperature 52 °F -  
Max Temperature 63 °F 69 °F 88 °F (1977)
Min Temperature 42 °F 47 °F 35 °F (1988)
Degree Days  
Heating Degree Days 13    
Growing Degree Days 2 (Base 50)    
Moisture  
Dew Point 36 °F    
Average Humidity 56    
Maximum Humidity 86    
Minimum Humidity 34    
Precipitation  
Precipitation 0.00 in - - ()
Sea Level Pressure  
Sea Level Pressure 30.34 in    
Wind  
Wind Speed 6 mph (ESE)    
Max Wind Speed 13 mph    
Max Gust Speed 21 mph    
Visibility 10 miles    
Events      
Averages and records for this station are not official NWS values.
T = Trace of Precipitation, MM = Missing Value Source: NWS Daily Summary

Daily Weather History Graph

Daily Weather History Graph

Search for Another Location

Airport:

Trip Planner

Search our weather history database for the weather conditions in past years. The results will help you decide how hot, cold, wet, or windy it might be!

Date:

Astronomy

May. 25, 2013 Rise Set
Actual Time 5:20 AM CDT 8:30 PM CDT
Civil Twilight 4:45 AM CDT 9:05 PM CDT
Nautical Twilight 4:00 AM CDT 9:50 PM CDT
Astronomical Twilight 3:05 AM CDT 10:46 PM CDT
Moon 9:17 PM CDT (5/25) 5:48 AM CDT (5/25)
Length of Visible Light 16h 19m
Length of Day
15h 09m
Full, 100% of the Moon is Illuminated
May 25
Full
May 31
Last Quarter
Jun 8
New
Jun 16
First Quarter
Jun 23
Full

Hourly Weather History & Observations

Time (CDT) Temp. Windchill Dew Point Humidity Pressure Visibility Wind Dir Wind Speed Gust Speed Precip Events Conditions
12:15 AM 46.6 °F - 36.0 °F 67% 30.33 in 10.0 mi SE 6.9 mph - N/A   Clear
12:35 AM 46.2 °F 44.1 °F 37.4 °F 71% 30.33 in 10.0 mi SE 4.6 mph - N/A   Clear
12:55 AM 46.4 °F 43.5 °F 38.3 °F 73% 30.32 in 10.0 mi SSE 5.8 mph - N/A   Clear
1:15 AM 46.4 °F - 38.7 °F 74% 30.32 in 10.0 mi Calm Calm - N/A   Clear
1:35 AM 46.4 °F - 39.0 °F 75% 30.32 in 10.0 mi Calm Calm - N/A   Clear
1:55 AM 46.0 °F - 38.8 °F 76% 30.33 in 10.0 mi Calm Calm - N/A   Clear
2:15 AM 45.5 °F - 38.8 °F 78% 30.33 in 10.0 mi Calm Calm - N/A   Clear
2:35 AM 44.4 °F - 38.5 °F 80% 30.33 in 10.0 mi Calm Calm - N/A   Clear
2:55 AM 43.7 °F - 38.7 °F 82% 30.33 in 10.0 mi Calm Calm - N/A   Clear
3:15 AM 43.3 °F 41.7 °F 39.2 °F 85% 30.33 in 10.0 mi East 3.5 mph - N/A   Clear
3:35 AM 42.6 °F 40.9 °F 38.5 °F 85% 30.33 in 10.0 mi East 3.5 mph - N/A   Clear
3:55 AM 42.3 °F 38.6 °F 38.3 °F 86% 30.33 in 10.0 mi East 5.8 mph - N/A   Clear
4:15 AM 42.8 °F 39.3 °F 38.3 °F 84% 30.34 in 10.0 mi East 5.8 mph - N/A   Clear
4:35 AM 42.8 °F 40.1 °F 38.3 °F 84% 30.34 in 10.0 mi East 4.6 mph - N/A   Clear
4:55 AM 42.8 °F 41.1 °F 37.8 °F 82% 30.34 in 10.0 mi East 3.5 mph - N/A   Clear
5:15 AM 43.0 °F 40.3 °F 37.4 °F 81% 30.35 in 10.0 mi East 4.6 mph - N/A   Clear
5:35 AM 43.2 °F - 37.0 °F 79% 30.36 in 10.0 mi Calm Calm - N/A   Mostly Cloudy
5:55 AM 44.1 °F 42.5 °F 37.2 °F 77% 30.37 in 10.0 mi South 3.5 mph - N/A   Overcast
6:15 AM 44.6 °F - 37.6 °F 76% 30.38 in 10.0 mi Calm Calm - N/A   Overcast
6:35 AM 44.8 °F 43.3 °F 37.4 °F 75% 30.38 in 10.0 mi East 3.5 mph - N/A   Mostly Cloudy
6:55 AM 45.1 °F 42.8 °F 37.0 °F 73% 30.39 in 10.0 mi East 4.6 mph - N/A   Mostly Cloudy
7:15 AM 45.5 °F 43.2 °F 36.3 °F 70% 30.40 in 10.0 mi East 4.6 mph - N/A   Overcast
7:35 AM 46.4 °F 42.9 °F 35.1 °F 65% 30.40 in 10.0 mi ESE 6.9 mph - N/A   Overcast
7:55 AM 47.3 °F - 34.7 °F 62% 30.38 in 10.0 mi East 8.1 mph - N/A   Overcast
8:15 AM 48.0 °F - 33.4 °F 57% 30.38 in 10.0 mi SE 9.2 mph - N/A   Overcast
8:35 AM 49.1 °F - 32.5 °F 53% 30.38 in 10.0 mi ESE 6.9 mph - N/A   Mostly Cloudy
8:55 AM 50.9 °F - 34.0 °F 52% 30.38 in 10.0 mi ESE 10.4 mph - N/A   Scattered Clouds
9:15 AM 51.4 °F - 33.4 °F 50% 30.39 in 10.0 mi ESE 9.2 mph - N/A   Mostly Cloudy
9:35 AM 52.5 °F - 34.0 °F 49% 30.39 in 10.0 mi SE 8.1 mph - N/A   Overcast
9:55 AM 53.8 °F - 36.1 °F 51% 30.39 in 10.0 mi East 10.4 mph - N/A   Overcast
10:15 AM 53.8 °F - 36.9 °F 53% 30.39 in 10.0 mi East 9.2 mph - N/A   Overcast
10:35 AM 56.3 °F - 37.8 °F 50% 30.38 in 10.0 mi SE 10.4 mph - N/A   Overcast
10:55 AM 58.1 °F - 37.4 °F 46% 30.38 in 10.0 mi SE 8.1 mph 16.1 mph N/A   Overcast
11:15 AM 59.4 °F - 36.9 °F 43% 30.36 in 10.0 mi SE 9.2 mph 18.4 mph N/A   Overcast
11:35 AM 57.6 °F - 36.7 °F 46% 30.35 in 10.0 mi SE 9.2 mph - N/A   Mostly Cloudy
11:55 AM 59.2 °F - 34.2 °F 39% 30.36 in 10.0 mi SE 10.4 mph - N/A   Clear
12:15 PM 59.4 °F - 34.3 °F 39% 30.36 in 10.0 mi East 11.5 mph 16.1 mph N/A   Scattered Clouds
12:35 PM 61.3 °F - 34.3 °F 36% 30.36 in 10.0 mi SE 10.4 mph 18.4 mph N/A   Mostly Cloudy
12:55 PM 59.9 °F - 33.4 °F 37% 30.35 in 10.0 mi ESE 12.7 mph 17.3 mph N/A   Scattered Clouds
1:15 PM 60.3 °F - 32.9 °F 36% 30.35 in 10.0 mi ESE 12.7 mph 18.4 mph N/A   Clear
1:35 PM 60.3 °F - 33.3 °F 36% 30.34 in 10.0 mi SE 9.2 mph 17.3 mph N/A   Clear
1:55 PM 60.4 °F - 34.5 °F 38% 30.34 in 10.0 mi SSE 9.2 mph 20.7 mph N/A   Clear
2:15 PM 61.5 °F - 34.3 °F 36% 30.33 in 10.0 mi SE 10.4 mph 17.3 mph N/A   Clear
2:35 PM 61.7 °F - 33.3 °F 34% 30.34 in 10.0 mi SSE 12.7 mph 16.1 mph N/A   Clear
2:55 PM 62.1 °F - 33.4 °F 34% 30.34 in 10.0 mi ESE 11.5 mph 17.3 mph N/A   Clear
3:15 PM 61.7 °F - 32.7 °F 34% 30.34 in 10.0 mi SE 9.2 mph - N/A   Clear
3:35 PM 62.2 °F - 33.3 °F 34% 30.34 in 10.0 mi SE 6.9 mph - N/A   Clear
3:55 PM 61.7 °F - 32.9 °F 34% 30.33 in 10.0 mi ESE 4.6 mph - N/A   Clear
4:15 PM 62.1 °F - 32.9 °F 34% 30.33 in 10.0 mi SE 9.2 mph - N/A   Clear
4:35 PM 62.2 °F - 34.0 °F 35% 30.33 in 10.0 mi SE 10.4 mph - N/A   Clear
4:55 PM 62.8 °F - 34.9 °F 35% 30.33 in 10.0 mi SE 9.2 mph - N/A   Clear
5:15 PM 62.6 °F - 33.4 °F 34% 30.32 in 10.0 mi SSE 5.8 mph - N/A   Clear
5:35 PM 61.3 °F - 33.1 °F 35% 30.30 in 10.0 mi East 9.2 mph - N/A   Clear
5:55 PM 61.9 °F - 35.2 °F 37% 30.30 in 10.0 mi ESE 10.4 mph - N/A   Clear
6:15 PM 61.3 °F - 34.9 °F 37% 30.30 in 10.0 mi SE 10.4 mph - N/A   Clear
6:35 PM 61.3 °F - 35.4 °F 38% 30.30 in 10.0 mi East 9.2 mph - N/A   Clear
6:55 PM 60.8 °F - 35.6 °F 39% 30.30 in 10.0 mi SE 8.1 mph - N/A   Clear
7:15 PM 60.1 °F - 36.3 °F 41% 30.30 in 10.0 mi SE 8.1 mph - N/A   Clear
7:35 PM 58.8 °F - 36.1 °F 43% 30.30 in 10.0 mi ESE 5.8 mph - N/A   Clear
7:55 PM 57.4 °F - 36.7 °F 46% 30.30 in 10.0 mi ESE 4.6 mph - N/A   Clear
8:15 PM 56.5 °F - 36.7 °F 48% 30.30 in 10.0 mi ESE 5.8 mph - N/A   Clear
8:35 PM 55.0 °F - 36.5 °F 50% 30.30 in 10.0 mi SE 4.6 mph - N/A   Clear
8:55 PM 54.1 °F - 36.5 °F 51% 30.30 in 10.0 mi ESE 4.6 mph - N/A   Clear
9:15 PM 53.2 °F - 36.5 °F 53% 30.31 in 10.0 mi SE 3.5 mph - N/A   Clear
9:35 PM 52.5 °F - 36.1 °F 54% 30.32 in 10.0 mi SE 3.5 mph - N/A   Clear
9:55 PM 51.4 °F - 36.0 °F 56% 30.32 in 10.0 mi ESE 3.5 mph - N/A   Clear
10:15 PM 50.0 °F - 36.1 °F 59% 30.32 in 10.0 mi East 3.5 mph - N/A   Clear
10:35 PM 48.6 °F - 36.9 °F 64% 30.33 in 10.0 mi East 4.6 mph - N/A   Clear
10:55 PM 47.3 °F - 38.5 °F 71% 30.32 in 10.0 mi East 3.5 mph - N/A   Clear
11:15 PM 48.2 °F - 35.6 °F 62% 30.32 in 10.0 mi ESE 3.5 mph - N/A   Clear
11:35 PM 48.0 °F - 35.6 °F 62% 30.32 in 10.0 mi Calm Calm - N/A   Clear
11:55 PM 42.8 °F 41.1 °F 35.4 °F 75% 30.32 in 10.0 mi ENE 3.5 mph - N/A   Clear